Volver al catálogo

CZ-6A DEB

ActivoPO
NORAD 55534·DEBRIS·🇨🇳 China

Lanzado Nov 11, 2022 desde Taiyuan Satellite Launch Center

Loading…

Próximos Pases (próximas 24 horas)

TLE

ActualizadoSource: Space-Track

Época: Sep 13, 2026, 19:14 UTC

1 55534U 22151YG  26256.80173957  .00041558  00000-0  28126-2 0  9998
2 55534  98.6415 352.2805 0034219 299.7515  60.0306 15.05895798199370

Sigue CZ-6A DEB en tiempo real con AllMySat

Download on the App Store